Regional Weather Roundup
Issued by NWS Northern Indiana

Home | Current Version | Previous Version | Text Only | Print | Product List | Glossary Off
Versions: 1 2 3 4 5 6 7 8 9 10 11 12 13 14 15 16 17 18 19 20 21 22 23 24 25 26 27 28 29 30 31 32 33 34 35 36 37 38 39 40 41 42 43 44 45 46 47 48 49 50

000
ASUS43 KIWX 301910
RWRIWX

KIWX WEATHER ROUNDUP
NATIONAL WEATHER SERVICE NORTHERN INDIANA
300 PM EDT FRI SEP 30 2016

NOTE: "FAIR" INDICATES FEW OR NO CLOUDS BELOW 12,000 FEET WITH NO
SIGNIFICANT WEATHER AND/OR OBSTRUCTIONS TO VISIBILITY.

* THESE STATIONS ARE NOT UNDER NWS QUALITY CONTROL. THEY ALSO MAY NOT
  REPORT WEATHER SUCH AS PRECIPITATION OR FOG.

INZ001>027-302000-
NORTHERN INDIANA

CITY           SKY/WX    TMP DP  RH WIND       PRES   REMARKS
GARY*          PTSUNNY   66  63  88 NE17      30.08F
VALPARAISO     CLOUDY    67  59  75 E14       30.06F
MICHIGAN CITY* CLOUDY    68  59  73 NE3       30.07F
LAPORTE*       CLOUDY    67  67 100 E12       30.08S
KNOX*          CLOUDY    63  46  55 NE9       30.05F
SOUTH BEND     CLOUDY    64  59  83 E8        30.07F
ELKHART*       CLOUDY    66  61  82 NE14      30.06F
GOSHEN         CLOUDY    65  59  81 E9        30.06F
MONTICELLO*    CLOUDY    67  56  68 E9        30.02F
LOGANSPORT*    CLOUDY    64  59  82 NE8       30.03F
ROCHESTER*     CLOUDY    63  63 100 NE8       30.05F FOG
WARSAW*        LGT RAIN  63  55  77 E9        30.06S
ANGOLA*          N/A     63  54  72 E10       30.07S
FORT WAYNE     LGT RAIN  63  59  87 NE12      30.03F
HUNTINGTON*    LGT RAIN  64  62  93 NE6       30.02F
PERU/GRISSOM   CLOUDY    64  61  88 NE14      30.01F
MARION*        CLOUDY    65  58  80 NE7G17    30.02F

$$
INZ028>050-302000-
CENTRAL INDIANA

CITY           SKY/WX    TMP DP  RH WIND       PRES   REMARKS
LAFAYETTE      PTSUNNY   65  61  87 NE13      30.00F
KOKOMO*        CLOUDY    64  59  82 NE16      30.02F
MUNCIE*        CLOUDY    66  59  78 NE13      30.00F
INDIANAPOLIS   PTSUNNY   66  56  70 N5        29.99F

$$
MIZ043>046-050>051-056>058-064>065-071>073-077>080-302000-
SOUTHWEST LOWER MICHIGAN

CITY           SKY/WX    TMP DP  RH WIND       PRES   REMARKS
BATTLE CREEK   CLOUDY    60  59  96 NE17      30.11F
BENTON HARBOR  CLOUDY    66  58  75 E13G20    30.08F
COLDWATER*     DRIZZLE   61  60  98 NE13      30.09F
HILLSDALE*     CLOUDY    59  57  94 NE14      30.09F FOG
HOLLAND        CLOUDY    63  57  81 E8        30.13F
GRAND RAPIDS   CLOUDY    61  56  83 NE16G24   30.14F
KALAMAZOO      CLOUDY    61  57  87 NE9       30.12F FOG
STURGIS*       CLOUDY    64  59  86 NE13G20   30.07F
THREE RIVERS*  CLOUDY    62  60  92 NE12G17   30.10S

$$
OHZ001>008-015>018-024>025-302000-
NORTHWEST OHIO

CITY           SKY/WX    TMP DP  RH WIND       PRES   REMARKS
WAUSEON*       CLOUDY    63  59  88 E14       30.08S
DEFIANCE       LGT RAIN  63  59  87 E5        30.06F FOG
FINDLAY        CLOUDY    66  57  72 NE10      30.04F
TOLEDO EXPRESS RAIN      62  61  96 NE14      30.04F FOG
TOLEDO METCALF LGT RAIN  63  60  90 NE8       30.07F FOG
LIMA           LGT RAIN  60  60 100 NE10      30.03F

$$
AND FOR LAKE MICHIGAN COASTAL AND OPEN LAKE BUOY OBSERVATIONS

STATION/POSITION TEMP    WIND        PRES    VSBY  WAVE
                 AIR SEA DIR/SP/G                  HT/PER
                 (F)     (DEG/KT/KT) (MB)    (MI)  (FT/S)
CALUMET HARBOR    64     360/  8/ 13 1018.1F
MICHIGAN CITY     62      20/ 15/ 17   N/A
BURNS HARBOR      64      40/ 16/ 18 1018.3F
SAINT JOSEPH      67      40/  5/ 12 1019.0
SOUTH LAKE BUOY   63 67   60/ 19/ 23 1019.2F         5/ 6
4 MI NW BRIDGMAN  56 51   20/ 10/ 14 1018.4          4/ 6
MICHIGAN CITY     63 64   40/ 16/ 19   N/A           6/ 7

$$
&&



USA.gov is the U.S. government's official web portal to all federal, state and local government web resources and services.